[[{"header":{"parameterUnit":"m.s-1","parameterCategory":1,"la1":30.2991,"la2":30.254,"lo1":-89.0895,"lo2":-89.0444,"dy":0.0017,"dx":0.0017,"nx":28,"ny":28,"refTime":"2024-04-16T09:00:00:Z","depth":0,"parameterNumber":2,"parameterNumberName":"U-component_of_WINDS"},"data":[0,0,0,0,0,0,0,0,0,0,0,0,0,0,0,0,0,0,0,0,0,0,0,0,0,0,0,0,0,0,0,0,0,0,0,0,0,0,0,0,0,0,0,0,0,0,0,0,0,0,0,0,0,0,0,0,0,0,-5.4256,-5.4257,0,-5.4273,-5.4273,-5.4273,-5.4217,-5.4216,-5.4214,-5.4213,-5.4226,-5.4228,-5.423,0,0,0,0,0,0,0,0,0,0,0,0,0,-5.4171,-5.4173,-5.4256,-5.4257,-5.4257,-5.4273,-5.4273,-5.4273,-5.4218,-5.4216,-5.4214,-5.4212,-5.4225,-5.4228,-5.423,0,0,0,0,0,0,0,0,0,0,0,0,0,-5.42,-5.4174,-5.4256,-5.4231,-5.4229,-5.4272,-5.4273,-5.4273,-5.4218,-5.4216,-5.4213,-5.4211,-5.4225,-5.4227,-5.423,-5.4298,0,0,-5.4239,-5.424,0,0,0,0,0,0,0,0,-5.4198,-5.4203,-5.4235,-5.4233,-5.4231,-5.4241,-5.4248,-5.4281,-5.4219,-5.4222,-5.4213,-5.421,-5.4233,-5.4235,-5.4243,-5.4298,-5.4299,-5.4239,-5.4241,-5.4242,-5.4243,0,0,0,0,0,0,0,-5.4197,-5.4202,-5.4263,-5.4235,-5.4233,-5.4217,-5.4218,-5.4254,-5.4241,-5.4222,-5.4218,-5.4221,-5.4231,-5.424,-5.4243,-5.4299,-5.4239,-5.4242,-5.4243,-5.4245,-5.4404,-5.4406,0,0,0,0,0,0,-5.4199,-5.4201,-5.4262,-5.4263,-5.4208,-5.4221,-5.4222,-5.424,-5.4241,-5.4238,-5.4223,-5.4218,-5.4237,-5.424,-5.4243,-5.4318,-5.4242,-5.4245,-5.4246,-5.4402,-5.4405,-5.4407,0,0,0,0,0,0,-5.4197,-5.4205,-5.4261,-5.4231,-5.4237,-5.4225,-5.4245,-5.4241,-5.4251,-5.4241,-5.4238,-5.4235,-5.4235,-5.4239,-5.4283,-5.4318,-5.4246,-5.4249,-5.4399,-5.4402,-5.4406,-5.4471,0,0,0,0,0,0,-5.4195,-5.4204,-5.4232,-5.4232,-5.4239,-5.4304,-5.4247,-5.4244,-5.4256,-5.425,-5.4252,-5.425,-5.4233,-5.4279,-5.4286,-5.432,-5.4251,-5.4395,-5.44,-5.4405,-5.4466,-5.4476,-5.4486,0,0,0,0,0,-5.4192,-5.425,-5.4233,-5.4241,-5.4273,-5.4306,-5.4309,-5.429,-5.426,-5.4285,-5.4278,-5.425,-5.4314,-5.4284,-5.4292,-5.4327,-5.4393,-5.4399,-5.4404,-5.4461,-5.4474,-5.4486,0,0,0,0,0,0,-5.4254,-5.425,-5.4231,-5.4292,-5.4299,-5.4296,-5.4329,-5.4306,-5.4322,-5.4315,-5.4289,-5.429,-5.4338,-5.4337,-5.4305,-5.4389,-5.4348,-5.4355,-5.4388,-5.4401,-5.4411,-5.4409,-5.4253,0,0,0,0,0,-5.4275,-5.4304,-5.4298,-5.4351,-5.4356,-5.4342,-5.4355,-5.4339,-5.4346,-5.4349,-5.4345,-5.4352,-5.4372,-5.4387,-5.4406,-5.4466,-5.4463,-5.4493,-5.4503,-5.4512,-5.4518,-5.4544,-5.4556,-5.4426,-5.4426,-5.4426,0,0,-5.4318,-5.4319,-5.4339,-5.4363,-5.4368,-5.4395,-5.4345,-5.4377,-5.4396,-5.4353,-5.4394,-5.4392,-5.4397,-5.4447,-5.447,-5.4448,-5.4553,-5.4519,-5.4526,-5.4527,-5.4551,-5.4563,-5.4574,-5.443,-5.4429,-5.4429,0,0,-5.441,-5.4416,-5.4458,-5.4463,-5.4469,-5.4459,-5.4469,-5.4469,-5.4465,-5.4506,-5.4472,-5.4494,-5.4532,-5.4535,-5.4542,-5.4631,-5.4603,-5.4638,-5.4689,-5.4716,-5.4726,-5.4735,-5.4762,-5.4773,-5.4644,-5.4644,-5.4644,0,-5.4463,-5.4504,-5.4483,-5.4516,-5.4526,-5.4488,-5.4529,-5.4534,-5.4547,-5.4553,-5.4529,-5.4572,-5.4574,-5.4622,-5.4643,-5.4652,-5.466,-5.4637,-5.4726,-5.4735,-5.4743,-5.4769,-5.478,-5.4648,-5.4648,-5.4647,-5.4647,0,-5.4566,-5.4595,-5.4628,-5.464,-5.4654,-5.4691,-5.4673,-5.4689,-5.4671,-5.4662,-5.47,-5.47,-5.4716,-5.4727,-5.4711,-5.4772,-5.4758,-5.4731,-5.4688,-5.476,-5.4783,-5.4793,-5.4653,-5.4652,-5.4651,-5.465,0,0,-5.4699,-5.4696,-5.4708,-5.4711,-5.4713,-5.4734,-5.4768,-5.4783,-5.4795,-5.4805,-5.4829,-5.4861,-5.4834,-5.4842,-5.4825,-5.4848,-5.4913,-5.4817,-5.4817,-5.4832,-5.4976,-5.4994,-5.5006,-5.4895,-5.4897,-5.4899,-5.4974,0,-5.4786,-5.4844,-5.4824,-5.4882,-5.4905,-5.4867,-5.4896,-5.4899,-5.4891,-5.4908,-5.4898,-5.4919,-5.4885,-5.4888,-5.491,-5.49,-5.4941,-5.4895,-5.4915,-5.4916,-5.4912,-5.5019,-5.504,-5.5111,-5.4983,-5.4985,-5.4986,0,-5.4896,-5.4908,-5.4968,-5.4962,-5.4971,-5.4997,-5.5007,-5.5025,-5.5026,-5.5018,-5.5025,-5.5002,-5.5031,-5.4989,-5.5027,-5.4996,-5.5003,-5.4999,-5.5001,-5.5,-5.4954,-5.5018,-5.5133,-5.5143,-5.5001,-5.5,-5.4999,0,-5.4982,-5.5013,-5.5051,-5.5055,-5.5051,-5.5069,-5.5067,-5.5066,-5.5075,-5.5084,-5.5089,-5.5101,-5.5107,-5.5116,-5.5095,-5.5067,-5.5134,-5.5092,-5.5125,-5.5126,-5.514,-5.5139,-5.5255,-5.5149,-5.5149,-5.5149,-5.5149,0,-5.508,-5.5117,-5.5089,-5.5113,-5.5152,-5.5127,-5.5166,-5.516,-5.5158,-5.5178,-5.5147,-5.5166,-5.5138,-5.5154,-5.5138,-5.5169,-5.5173,-5.5165,-5.516,-5.5166,-5.5167,-5.5168,-5.5162,-5.5152,-5.5151,-5.5151,-5.515,0,-5.5182,-5.5166,-5.5204,-5.5195,-5.5194,-5.5222,-5.5214,-5.5233,-5.5222,-5.5247,-5.5251,-5.5233,-5.5249,-5.5229,-5.5244,-5.5233,-5.5274,-5.5263,-5.5274,-5.5269,-5.5303,-5.5299,-5.5422,-5.5435,-5.5324,-5.5325,-5.5326,0,-5.5245,-5.5272,-5.5265,-5.5275,-5.5275,-5.5294,-5.5302,-5.5278,-5.5287,-5.5288,-5.5307,-5.532,-5.5329,-5.5356,-5.5343,-5.5353,-5.5339,-5.5382,-5.5341,-5.5345,-5.5336,-5.5333,-5.5334,-5.539,-5.5391,-5.5392,-5.5393,0,-5.5356,-5.5345,-5.5358,-5.5368,-5.5378,-5.5385,-5.5389,-5.5399,-5.5373,-5.5385,-5.54,-5.5407,-5.5421,-5.5433,-5.5438,-5.5435,-5.5408,-5.5406,-5.5414,-5.5419,-5.5423,-5.5417,-5.5293,-5.5403,-5.5402,-5.5401,-5.5401,-5.54,-5.5437,-5.5458,-5.5454,-5.5469,-5.5469,-5.5472,-5.5489,-5.5479,-5.5491,-5.55,-5.5485,-5.5503,-5.5499,-5.5504,-5.5503,-5.5515,-5.5497,-5.5509,-5.5512,-5.5514,-5.5517,-5.5423,-5.5517,-5.5517,-5.5516,-5.5516,-5.5516,0,-5.5543,-5.5538,-5.5552,-5.5557,-5.5568,-5.5542,-5.5544,-5.5554,-5.5571,-5.557,-5.5579,-5.5594,-5.5605,-5.5592,-5.5599,-5.5612,-5.5599,-5.5614,-5.5611,-5.561,-5.5536,-5.5527,-5.5623,-5.5623,-5.5623,-5.5623,-5.5623,-5.5623,-5.5599,-5.5631,-5.5619,-5.5649,-5.5644,-5.5661,-5.5664,-5.5665,-5.5664,-5.5682,-5.5691,-5.5682,-5.5675,-5.5681,-5.5689,-5.5684,-5.5687,-5.5705,-5.5696,-5.5627,-5.5616,-5.5606,-5.5597,-5.5707,-5.5707,-5.5769,-5.577,-5.577]},{"header":{"parameterUnit":"m.s-1","parameterCategory":1,"la1":30.2991,"la2":30.254,"lo1":-89.0895,"lo2":-89.0444,"dy":0.0017,"dx":0.0017,"nx":28,"ny":28,"refTime":"2024-04-16T09:00:00:Z","depth":0,"parameterNumber":3,"parameterNumberName":"V-component_of_WINDS"},"data":[0,0,0,0,0,0,0,0,0,0,0,0,0,0,0,0,0,0,0,0,0,0,0,0,0,0,0,0,0,0,0,0,0,0,0,0,0,0,0,0,0,0,0,0,0,0,0,0,0,0,0,0,0,0,0,0,0,0,4.3068,4.3066,0,4.2926,4.2924,4.2923,4.2851,4.2851,4.2851,4.2851,4.2693,4.2689,4.2685,0,0,0,0,0,0,0,0,0,0,0,0,0,4.3264,4.3261,4.3068,4.3066,4.3064,4.2926,4.2924,4.2922,4.2851,4.2851,4.2851,4.2851,4.2694,4.2689,4.2684,0,0,0,0,0,0,0,0,0,0,0,0,0,4.3156,4.326,4.3068,4.3012,4.3006,4.2927,4.2924,4.2922,4.2851,4.2851,4.2851,4.2851,4.2696,4.269,4.2684,4.2645,0,0,4.2664,4.2662,0,0,0,0,0,0,0,0,4.3162,4.3149,4.3022,4.3016,4.3009,4.2906,4.2935,4.2828,4.2851,4.2909,4.2851,4.2851,4.2763,4.2751,4.2724,4.2638,4.2631,4.2664,4.266,4.2657,4.2655,0,0,0,0,0,0,0,4.317,4.3154,4.3011,4.302,4.3012,4.299,4.2975,4.2915,4.2837,4.2904,4.2899,4.2884,4.2759,4.273,4.272,4.2629,4.2664,4.2658,4.2654,4.2652,4.2501,4.25,0,0,0,0,0,0,4.3188,4.3161,4.3016,4.3007,4.3087,4.2987,4.2969,4.2939,4.2838,4.2823,4.2884,4.2881,4.2741,4.2727,4.2714,4.2661,4.2657,4.2651,4.2648,4.2501,4.2501,4.25,0,0,0,0,0,0,4.3193,4.3176,4.3021,4.3083,4.3061,4.2983,4.295,4.2936,4.2908,4.2823,4.2807,4.287,4.2741,4.2723,4.2663,4.2655,4.2649,4.2643,4.2501,4.2501,4.2501,4.2557,0,0,0,0,0,0,4.3199,4.3178,4.3166,4.3083,4.3059,4.2977,4.2949,4.2933,4.2898,4.2893,4.2805,4.2791,4.2739,4.2673,4.2657,4.2646,4.2638,4.2502,4.2501,4.2501,4.2555,4.2558,4.2561,0,0,0,0,0,4.3206,4.3185,4.3165,4.3148,4.3042,4.2977,4.2962,4.2907,4.2898,4.2883,4.2828,4.2793,4.2659,4.2668,4.2649,4.2636,4.2502,4.2501,4.2501,4.2554,4.2558,4.2561,0,0,0,0,0,0,4.3264,4.3173,4.315,4.3103,4.3049,4.2965,4.2944,4.2913,4.2857,4.2854,4.2784,4.2765,4.2711,4.2667,4.2679,4.2592,4.2576,4.2572,4.2623,4.2626,4.2629,4.264,4.2633,0,0,0,0,0,4.3272,4.3231,4.3152,4.3117,4.3091,4.3023,4.2992,4.2955,4.2894,4.287,4.281,4.2749,4.2693,4.2657,4.2601,4.2549,4.2527,4.253,4.2533,4.2536,4.2533,4.25,4.25,4.2499,4.2499,4.2499,0,0,4.3287,4.3232,4.3209,4.3127,4.3081,4.3036,4.3004,4.2958,4.2922,4.2861,4.2802,4.2757,4.2683,4.2627,4.2599,4.2589,4.2528,4.2535,4.2538,4.2533,4.2499,4.25,4.25,4.2498,4.2498,4.2498,0,0,4.3291,4.3246,4.3212,4.3167,4.3099,4.3053,4.3045,4.2966,4.2935,4.2876,4.2829,4.2783,4.2688,4.2638,4.26,4.2584,4.2549,4.2567,4.2582,4.2551,4.2551,4.255,4.2543,4.2542,4.2564,4.2564,4.2564,0,4.3317,4.3251,4.3198,4.3155,4.3119,4.3066,4.3028,4.2985,4.29,4.2875,4.2865,4.2745,4.2692,4.2622,4.2619,4.259,4.2576,4.2577,4.2556,4.2555,4.2554,4.2546,4.2544,4.2567,4.2567,4.2566,4.2566,0,4.3286,4.3241,4.322,4.3145,4.3106,4.3066,4.3002,4.2969,4.2935,4.2889,4.2827,4.2762,4.2691,4.2672,4.2636,4.2596,4.2592,4.257,4.2553,4.2558,4.2549,4.2546,4.2571,4.257,4.2569,4.2568,0,0,4.3322,4.3218,4.3211,4.3176,4.3096,4.3058,4.3014,4.2949,4.2921,4.2863,4.2822,4.2743,4.2723,4.2679,4.2637,4.261,4.26,4.2591,4.2588,4.2594,4.255,4.2567,4.2565,4.2577,4.2576,4.2575,4.2556,0,4.3314,4.3238,4.3188,4.313,4.3086,4.3034,4.2995,4.294,4.2896,4.2848,4.2797,4.2742,4.272,4.2693,4.2665,4.2608,4.259,4.2609,4.2534,4.2532,4.2555,4.256,4.2578,4.2563,4.2552,4.2552,4.2551,0,4.3295,4.3244,4.3182,4.3107,4.3087,4.3054,4.2989,4.2946,4.288,4.285,4.2802,4.276,4.2707,4.2695,4.2619,4.2632,4.2598,4.2566,4.2564,4.2554,4.2542,4.255,4.2557,4.2554,4.2546,4.2546,4.2547,0,4.3327,4.3241,4.3194,4.3165,4.3076,4.3054,4.3015,4.295,4.2914,4.2855,4.283,4.2766,4.2729,4.2678,4.2618,4.2615,4.2547,4.253,4.2517,4.2518,4.2504,4.2506,4.2505,4.2484,4.2484,4.2484,4.2484,0,4.3323,4.3287,4.3207,4.3178,4.3135,4.3075,4.3033,4.2989,4.2932,4.289,4.2839,4.28,4.2723,4.2673,4.2624,4.2568,4.2552,4.2522,4.251,4.2527,4.2531,4.2503,4.2502,4.2484,4.2484,4.2484,4.2484,0,4.3351,4.3296,4.3241,4.3163,4.3142,4.3113,4.3044,4.3011,4.2964,4.2912,4.2895,4.282,4.2759,4.2694,4.2609,4.2576,4.2521,4.2504,4.2545,4.2537,4.2528,4.2529,4.2509,4.2502,4.2487,4.2488,4.2488,0,4.3352,4.3324,4.3243,4.3214,4.3178,4.313,4.3094,4.3033,4.2996,4.292,4.2895,4.2831,4.2776,4.2679,4.2614,4.2548,4.2528,4.2526,4.2517,4.2535,4.2526,4.2529,4.2525,4.2528,4.2529,4.2529,4.2529,0,4.3359,4.3333,4.3286,4.3228,4.3187,4.3137,4.3085,4.3063,4.2991,4.2951,4.289,4.2848,4.2763,4.2698,4.2625,4.2579,4.2541,4.2533,4.2526,4.2542,4.2567,4.2552,4.2551,4.2533,4.2533,4.2532,4.2532,4.2532,4.3372,4.3345,4.3284,4.3232,4.3187,4.314,4.3106,4.3056,4.3005,4.2935,4.29,4.2839,4.2771,4.2669,4.2625,4.2572,4.2561,4.2551,4.2549,4.2547,4.2551,4.2577,4.2558,4.2558,4.2558,4.2558,4.2557,0,4.3376,4.3335,4.3288,4.3219,4.3176,4.3149,4.309,4.3055,4.3003,4.2945,4.2894,4.2822,4.2759,4.269,4.2621,4.2592,4.2573,4.2576,4.2577,4.2567,4.2565,4.2578,4.2593,4.2593,4.2593,4.2593,4.2593,4.2593,4.3373,4.3325,4.3292,4.3219,4.3177,4.312,4.3088,4.3043,4.2997,4.2921,4.287,4.2827,4.2763,4.269,4.2629,4.261,4.2586,4.2595,4.257,4.257,4.2567,4.2564,4.2576,4.259,4.259,4.2576,4.2576,4.2576]}]]